• In Lithuania
  • List of Countries
  • For 7 days
  • Water Temperature
  • Satellite Maps
  • Weather Map
  • Weather Widgets
  • user-avatar
    Login

    Hourly Weather Kazgulak

    Today, 22 August, Wednesday

    Time Temperature Precipitation Wind Pressure Humidity
    00:00 +22°C° 0 mm 4 mps 746 mmHg 60%
    01:00 +21°C° 0 mm 4 mps 746 mmHg 64%
    02:00 +20°C° 0 mm 3 mps 746 mmHg 69%
    03:00 +20°C° 0 mm 3 mps 746 mmHg 74%
    04:00 +20°C° 0 mm 3 mps 746 mmHg 76%
    05:00 +19°C° 0 mm 3 mps 746 mmHg 79%
    06:00 +19°C° 0 mm 2 mps 746 mmHg 82%
    07:00 +21°C° 0 mm 2 mps 746 mmHg 74%
    08:00 +24°C° 0 mm 2 mps 746 mmHg 66%
    09:00 +26°C° 0 mm 2 mps 746 mmHg 58%
    10:00 +28°C° 0 mm 2 mps 746 mmHg 51%
    11:00 +30°C° 0 mm 1 mps 746 mmHg 44%
    12:00 +31°C° 0 mm 1 mps 746 mmHg 37%
    13:00 +32°C° 0 mm 1 mps 745 mmHg 34%
    14:00 +32°C° 0 mm 1 mps 745 mmHg 31%
    15:00 +34°C° 0 mm 2 mps 745 mmHg 28%
    16:00 +32°C° 0 mm 2 mps 745 mmHg 29%
    17:00 +32°C° 0 mm 2 mps 745 mmHg 30%
    18:00 +33°C° 0 mm 3 mps 745 mmHg 30%
    19:00 +30°C° 0 mm 2 mps 745 mmHg 32%
    20:00 +29°C° 0 mm 2 mps 746 mmHg 35%
    21:00 +27°C° 0 mm 2 mps 746 mmHg 37%
    22:00 +27°C° 0 mm 2 mps 746 mmHg 38%
    23:00 +26°C° 0 mm 1 mps 746 mmHg 38%

    Tomorrow, 23 August, Thursday

    Time Temperature Precipitation Wind Pressure Humidity
    00:00 +26°C° 0 mm 1 mps 747 mmHg 39%
    01:00 +25°C° 0 mm 2 mps 747 mmHg 43%
    02:00 +24°C° 0 mm 3 mps 747 mmHg 48%
    03:00 +22°C° 0 mm 3 mps 747 mmHg 52%
    04:00 +22°C° 0 mm 3 mps 748 mmHg 55%
    05:00 +21°C° 0 mm 4 mps 748 mmHg 59%
    06:00 +21°C° 0 mm 4 mps 748 mmHg 63%
    07:00 +22°C° 0 mm 4 mps 749 mmHg 57%
    08:00 +23°C° 0 mm 5 mps 749 mmHg 50%
    09:00 +26°C° 0 mm 5 mps 749 mmHg 44%
    10:00 +27°C° 0 mm 5 mps 749 mmHg 40%
    11:00 +28°C° 0 mm 5 mps 749 mmHg 36%
    12:00 +30°C° 0 mm 5 mps 749 mmHg 32%
    13:00 +30°C° 0 mm 5 mps 749 mmHg 30%
    14:00 +32°C° 0 mm 5 mps 749 mmHg 29%
    15:00 +32°C° 0 mm 5 mps 749 mmHg 27%
    16:00 +30°C° 0 mm 5 mps 749 mmHg 27%
    17:00 +30°C° 0 mm 5 mps 748 mmHg 27%
    18:00 +29°C° 0 mm 5 mps 748 mmHg 26%
    19:00 +27°C° 0 mm 5 mps 749 mmHg 25%
    20:00 +26°C° 0 mm 5 mps 749 mmHg 24%
    21:00 +25°C° 0 mm 5 mps 749 mmHg 23%
    22:00 +23°C° 0 mm 5 mps 749 mmHg 23%
    23:00 +23°C° 0 mm 5 mps 749 mmHg 23%

    Day after tomorrow, 24 August, Friday

    Time Temperature Precipitation Wind Pressure Humidity
    00:00 +22°C° 0 mm 5 mps 749 mmHg 24%
    01:00 +22°C° 0 mm 5 mps 749 mmHg 25%
    02:00 +21°C° 0 mm 5 mps 749 mmHg 27%
    03:00 +21°C° 0 mm 5 mps 749 mmHg 28%
    04:00 +20°C° 0 mm 5 mps 749 mmHg 31%
    05:00 +20°C° 0 mm 5 mps 749 mmHg 34%
    06:00 +20°C° 0 mm 6 mps 749 mmHg 36%
    07:00 +21°C° 0 mm 6 mps 749 mmHg 34%
    08:00 +23°C° 0 mm 7 mps 749 mmHg 32%
    09:00 +26°C° 0 mm 8 mps 749 mmHg 31%
    10:00 +27°C° 0 mm 8 mps 749 mmHg 28%
    11:00 +28°C° 0 mm 8 mps 749 mmHg 26%
    12:00 +29°C° 0 mm 8 mps 748 mmHg 24%
    13:00 +31°C° 0 mm 8 mps 748 mmHg 24%
    14:00 +31°C° 0 mm 8 mps 748 mmHg 23%
    15:00 +31°C° 0 mm 8 mps 747 mmHg 22%
    16:00 +30°C° 0 mm 7 mps 747 mmHg 23%
    17:00 +29°C° 0 mm 7 mps 747 mmHg 24%
    18:00 +28°C° 0 mm 6 mps 747 mmHg 25%
    19:00 +27°C° 0 mm 6 mps 747 mmHg 28%
    20:00 +26°C° 0 mm 6 mps 747 mmHg 31%
    21:00 +23°C° 0 mm 6 mps 747 mmHg 34%
    22:00 +23°C° 0 mm 6 mps 747 mmHg 38%
    23:00 +22°C° 0 mm 5 mps 747 mmHg 43%

    25 August, Saturday

    Time Temperature Precipitation Wind Pressure Humidity
    00:00 +21°C° 0 mm 5 mps 747 mmHg 48%
    01:00 +21°C° 0 mm 5 mps 747 mmHg 51%
    02:00 +20°C° 0 mm 5 mps 747 mmHg 53%
    03:00 +20°C° 0 mm 5 mps 747 mmHg 56%
    04:00 +19°C° 0 mm 5 mps 747 mmHg 56%
    05:00 +19°C° 0 mm 5 mps 747 mmHg 56%
    06:00 +19°C° 0 mm 5 mps 747 mmHg 57%
    07:00 +20°C° 0 mm 6 mps 747 mmHg 54%
    08:00 +22°C° 0 mm 6 mps 747 mmHg 50%
    09:00 +23°C° 0 mm 7 mps 747 mmHg 47%
    10:00 +26°C° 0 mm 7 mps 747 mmHg 44%
    11:00 +27°C° 0 mm 7 mps 747 mmHg 41%
    12:00 +29°C° 0 mm 7 mps 747 mmHg 38%
    13:00 +29°C° 0 mm 7 mps 746 mmHg 36%
    14:00 +30°C° 0 mm 7 mps 746 mmHg 34%
    15:00 +32°C° 0 mm 7 mps 746 mmHg 31%
    16:00 +30°C° 0 mm 7 mps 746 mmHg 32%
    17:00 +30°C° 0 mm 7 mps 746 mmHg 33%
    18:00 +29°C° 0 mm 7 mps 746 mmHg 33%
    19:00 +28°C° 0 mm 7 mps 746 mmHg 34%
    20:00 +27°C° 0 mm 7 mps 746 mmHg 35%
    21:00 +24°C° 0 mm 7 mps 746 mmHg 36%
    22:00 +23°C° 0 mm 7 mps 746 mmHg 38%
    23:00 +23°C° 0 mm 6 mps 746 mmHg 39%

    26 August, Sunday

    Time Temperature Precipitation Wind Pressure Humidity
    00:00 +22°C° 0 mm 6 mps 746 mmHg 40%
    01:00 +21°C° 0 mm 6 mps 746 mmHg 42%
    02:00 +21°C° 0 mm 6 mps 746 mmHg 45%
    03:00 +20°C° 0 mm 5 mps 746 mmHg 47%
    04:00 +20°C° 0 mm 5 mps 746 mmHg 50%
    05:00 +20°C° 0 mm 6 mps 746 mmHg 52%
    06:00 +20°C° 0 mm 6 mps 746 mmHg 55%
    07:00 +22°C° 0 mm 7 mps 746 mmHg 50%
    08:00 +24°C° 0 mm 8 mps 746 mmHg 45%
    09:00 +27°C° 0 mm 9 mps 746 mmHg 40%
    10:00 +28°C° 0 mm 9 mps 746 mmHg 36%
    11:00 +31°C° 0 mm 9 mps 745 mmHg 33%
    12:00 +32°C° 0 mm 10 mps 745 mmHg 30%
    13:00 +32°C° 0 mm 10 mps 744 mmHg 29%
    14:00 +33°C° 0 mm 10 mps 744 mmHg 28%
    15:00 +33°C° 0 mm 10 mps 744 mmHg 28%
    16:00 +33°C° 0 mm 9 mps 744 mmHg 29%
    17:00 +32°C° 0 mm 9 mps 744 mmHg 31%
    18:00 +31°C° 0 mm 8 mps 744 mmHg 33%
    19:00 +28°C° 0 mm 8 mps 744 mmHg 36%
    20:00 +27°C° 0 mm 8 mps 744 mmHg 39%
    21:00 +26°C° 0 mm 7 mps 744 mmHg 43%
    22:00 +24°C° 0 mm 7 mps 744 mmHg 46%
    23:00 +23°C° 0 mm 7 mps 744 mmHg 50%

    27 August, Monday

    Time Temperature Precipitation Wind Pressure Humidity
    00:00 +22°C° 0 mm 7 mps 744 mmHg 54%
    01:00 +22°C° 0 mm 6 mps 744 mmHg 55%
    02:00 +21°C° 0 mm 6 mps 744 mmHg 57%
    03:00 +21°C° 0 mm 6 mps 744 mmHg 58%
    04:00 +21°C° 0 mm 6 mps 744 mmHg 57%
    05:00 +20°C° 0 mm 6 mps 744 mmHg 57%
    06:00 +20°C° 0 mm 6 mps 744 mmHg 57%
    07:00 +22°C° 0 mm 6 mps 744 mmHg 52%
    08:00 +24°C° 0 mm 7 mps 744 mmHg 48%
    09:00 +27°C° 0 mm 8 mps 744 mmHg 43%
    10:00 +29°C° 0 mm 8 mps 744 mmHg 39%
    11:00 +32°C° 0 mm 8 mps 743 mmHg 35%
    12:00 +33°C° 0 mm 8 mps 743 mmHg 31%
    13:00 +34°C° 0 mm 8 mps 743 mmHg 30%
    14:00 +34°C° 0 mm 8 mps 743 mmHg 29%
    15:00 +35°C° 0 mm 8 mps 742 mmHg 28%
    16:00 +34°C° 0 mm 8 mps 743 mmHg 30%
    17:00 +34°C° 0 mm 7 mps 743 mmHg 31%
    18:00 +33°C° 0 mm 7 mps 743 mmHg 33%
    19:00 +30°C° 0 mm 7 mps 743 mmHg 35%
    20:00 +29°C° 0 mm 7 mps 743 mmHg 38%
    21:00 +28°C° 0 mm 7 mps 743 mmHg 40%
    22:00 +27°C° 0 mm 7 mps 743 mmHg 43%
    23:00 +26°C° 0 mm 7 mps 743 mmHg 46%
    Show more